Theta_e
361 356 356 359 356 354 352 354 363 364 355 360 360 357 358 353 356 356 350 348 340 339
360 359 357 361 362 355 361 355 359 359 359 359 358 358 359 354 353 351 352 347 344 340
360 361 361 360 358 358 358 357 356 355 356 358 358 358 357 353 354 351 349 347 344 341
359 359 359 356 357 356 357 356 355 356 356 354 354 355 353 352 348 346 345 341 342 339
356 355 354 353 354 354 353 354 354 354 353 352 351 351 349 344 345 340 339 342 342 340
353 352 352 349 350 352 351 351 351 349 348 348 347 342 339 342 340 338 338 339 340 341
353 352 350 350 349 351 351 346 340 340 340 340 341 343 344 342 336 336 338 341 342 341
355 352 351 351 351 350 345 338 336 336 339 343 340 342 339 336 337 338 338 339 341 341
355 352 351 348 348 343 337 335 338 336 336 336 341 332 333 336 336 339 338 337 339 341
354 351 349 348 346 340 336 336 335 337 341 340 342 329 330 333 335 336 336 338 340 338
353 350 348 346 343 339 335 334 341 337 342 342 341 328 326 330 335 336 336 337 338 339
351 349 347 345 344 339 336 334 334 335 339 340 340 324 323 329 335 336 333 333 339 339
352 349 347 344 343 342 338 336 336 340 342 333 336 322 320 326 334 330 331 332 337 330
352 349 347 344 343 343 339 337 337 340 342 342 335 335 318 319 335 331 333 334 334 334
Wind_Speed
14 11 12 14 13 12 13 13 15 12 10 14 14 14 13 12 12 11 7 10 9 7
9 12 12 13 11 11 13 14 15 16 16 16 16 15 13 11 13 10 12 13 13 11
7 9 10 10 13 14 14 14 15 16 16 16 15 15 13 12 12 13 10 9 11 10
5 7 8 10 11 13 13 14 13 11 11 13 12 12 10 10 7 11 8 7 9 10
6 7 9 10 11 12 13 12 12 10 12 13 10 10 12 10 10 10 9 11 12 12
6 7 8 8 10 11 10 11 10 8 10 8 6 5 4 8 6 6 7 11 10 11
7 7 8 8 9 10 8 6 4 3 3 6 9 11 10 9 7 8 7 8 6 7
8 7 8 9 8 8 4 5 4 5 6 8 7 6 7 5 6 5 4 3 5 5
8 8 8 8 7 6 6 6 7 6 7 8 7 10 12 9 6 7 6 6 6 6
9 9 7 8 6 7 8 9 8 9 11 11 10 12 11 10 4 5 5 5 6 7
8 9 8 7 7 8 6 8 11 8 11 11 11 15 11 12 7 7 8 6 6 8
9 9 8 8 7 7 6 7 8 8 11 11 9 12 12 12 9 7 6 5 8 9
9 10 9 7 7 7 6 7 7 11 11 10 11 15 12 12 5 7 6 8 10 5
11 10 9 8 8 7 7 6 8 9 8 10 10 10 15 15 9 6 6 7 8 7
Wind_Direction
245 245 248 245 254 253 249 244 234 229 223 234 230 236 229 235 233 224 213 201 196 194
247 248 262 272 262 254 257 254 258 242 236 235 238 239 228 232 236 209 209 209 213 219
248 254 260 262 260 262 262 262 256 254 244 242 242 236 222 230 217 215 217 218 214 222
253 262 265 267 271 269 268 263 258 252 249 250 245 240 216 223 205 214 220 224 214 211
262 273 276 277 271 267 266 262 256 250 240 236 228 211 208 203 207 199 220 227 232 226
266 277 279 277 271 275 275 271 268 249 246 221 189 187 206 229 230 219 232 238 224 230
274 282 290 288 283 270 260 255 176 170 171 186 202 205 220 223 227 231 224 222 212 207
272 277 286 288 280 276 227 186 177 215 234 246 221 199 180 183 198 214 219 214 227 218
263 269 284 287 277 237 213 194 193 195 196 197 199 172 175 185 193 219 220 220 231 225
265 272 279 292 259 230 224 211 213 226 226 204 200 181 192 173 192 226 243 244 224 211
259 268 276 269 256 237 217 217 228 232 231 212 195 176 185 180 201 217 223 240 217 212
245 254 260 265 254 218 214 205 210 216 226 223 207 172 184 176 199 210 204 224 236 209
233 241 247 248 252 242 212 211 210 214 211 208 208 183 189 184 185 193 201 205 220 209
228 227 236 237 238 226 227 234 234 233 215 204 211 188 178 187 197 191 209 216 194 191